This is the latest recevied weather packets stored in our database for station/object ON4CCM-13. If no packets are shown the sender has not sent any weather packets the latest 10 day(s).
| Time | Temp. | Humidity | Pressure | Rain* | Wind** | Luminosity | Snow |
|---|---|---|---|---|---|---|---|
| 1777785069 | 12.22° C | 99% | 1013.3 hPa | 0 mm | - | - | - |
| 1777784444 | 12.22° C | 99% | 1013.4 hPa | 0 mm | - | - | - |
| 1777782069 | 12.22° C | 98% | 1013.8 hPa | 0 mm | - | - | - |
| 1777766432 | 14.44° C | 92% | 1015.3 hPa | 0 mm | - | - | - |
| 1777761058 | 14.44° C | 87% | 1015.9 hPa | 0 mm | - | - | - |
| 1777756834 | 15° C | 78% | 1015.9 hPa | 2.29 mm | - | - | - |
| 1777748440 | 20° C | 46% | 1016 hPa | 0 mm | - | - | - |
| 1777746025 | 21.11° C | 42% | 1016 hPa | 0 mm | - | - | - |
| 1777738841 | 24.44° C | 26% | 1016.6 hPa | 0 mm | - | - | - |
| 1777737654 | 24.44° C | 25% | 1016.8 hPa | 0 mm | - | - | - |
| 1777734064 | 25° C | 25% | 1017.6 hPa | 0 mm | - | - | - |
| 1777728631 | 25° C | 27% | 1018.9 hPa | 0 mm | - | - | - |
| 1777720239 | 23.33° C | 33% | 1020.7 hPa | 0 mm | - | - | - |
| 1777717824 | 23.33° C | 32% | 1021 hPa | 0 mm | - | - | - |
| 1777714262 | 22.78° C | 29% | 1021.4 hPa | 0 mm | - | - | - |
| 1777713080 | 23.33° C | 27% | 1021.5 hPa | 0 mm | - | - | - |
| 1777707075 | 21.11° C | 27% | 1021.8 hPa | 0 mm | - | - | - |
| 1777701080 | 11.11° C | 54% | 1021.8 hPa | 0 mm | - | - | - |
| 1777698019 | 10.56° C | 53% | 1021.4 hPa | 0 mm | - | - | - |
| 1777695664 | 10° C | 57% | 1021.8 hPa | 0 mm | - | - | - |
| 1777695060 | 9.44° C | 58% | 1021.6 hPa | 0 mm | - | - | - |
| 1777694457 | 9.44° C | 58% | 1021.5 hPa | 0 mm | - | - | - |
| 1777692644 | 8.89° C | 59% | 1021.5 hPa | 0 mm | - | - | - |
| 1777688418 | 8.33° C | 57% | 1022 hPa | 0 mm | - | - | - |
| 1777683649 | 8.89° C | 54% | 1022.3 hPa | 0 mm | - | - | - |
* Rain latest hour (hover to see other rain measurements)
** Current wind speed in m/s (hover to see current wind gust speed)